Date,TemperatureHighF,TemperatureAvgF,TemperatureLowF,DewpointHighF,DewpointAvgF,DewpointLowF,HumidityHigh,HumidityAvg,HumidityLow,PressureMaxIn,PressureMinIn,WindSpeedMaxMPH,WindSpeedAvgMPH,GustSpeedMaxMPH,PrecipitationSumIn
2013-9-1,85.2,68.3,53.6,59.6,55.3,50.9,92,67,35,29.94,29.85,7,1,16,0.00
2013-9-2,83.2,69.7,58.4,62.2,58.7,54.4,90,70,45,29.95,29.87,8,2,18,0.00
2013-9-3,80.4,66.3,52.1,57.5,53.9,49.3,92,68,36,29.99,29.90,7,1,17,0.00
2013-9-4,82.5,65.0,49.6,58.4,53.8,48.2,97,71,41,30.02,29.91,8,2,17,0.00
2013-9-5,83.0,67.1,49.1,57.0,52.5,47.4,96,64,33,30.00,29.92,7,2,18,0.00
2013-9-6,95.0,70.7,48.7,56.8,49.8,45.9,93,54,20,29.99,29.83,5,1,12,0.00
2013-9-7,99.0,73.1,50.3,52.7,47.3,42.7,84,47,15,29.89,29.79,5,1,15,0.00
2013-9-8,99.8,71.1,49.1,58.4,50.4,44.2,91,55,18,29.88,29.74,4,1,10,0.00
2013-9-9,101.9,71.5,50.1,57.8,50.3,42.4,90,55,15,29.82,29.67,6,1,13,0.00
2013-9-10,80.0,64.1,53.4,61.6,56.2,50.1,94,77,51,29.91,29.73,6,1,16,0.00
2013-9-11,75.9,65.6,61.5,60.3,57.9,56.5,88,77,57,30.00,29.91,6,1,13,0.00
2013-9-12,85.8,66.5,53.8,64.0,58.1,51.4,92,77,47,29.99,29.86,4,1,10,0.00
2013-9-13,89.5,65.3,52.9,61.2,54.9,50.1,95,74,28,29.91,29.73,4,0,10,0.00
2013-9-14,87.7,58.8,48.0,59.8,52.2,46.6,96,82,39,29.83,29.70,3,0,8,0.00
2013-9-15,82.1,61.0,46.5,58.2,52.7,45.1,96,78,41,29.86,29.77,5,1,15,0.00
2013-9-16,85.8,65.3,49.5,60.9,54.2,48.1,97,72,37,29.90,29.75,7,1,15,0.00
2013-9-17,80.8,64.4,48.4,55.8,51.0,46.6,95,66,38,29.88,29.80,7,2,17,0.00
2013-9-18,86.3,65.5,48.9,52.0,46.1,38.9,89,56,19,29.92,29.80,6,1,16,0.00
2013-9-19,91.6,66.2,44.7,51.5,41.4,25.0,89,49,15,29.87,29.74,6,1,14,0.00
2013-9-20,77.2,56.0,42.4,60.0,46.2,37.3,89,71,51,29.84,29.77,6,1,15,0.00
2013-9-21,68.8,60.5,53.0,61.1,55.6,50.1,96,85,60,29.90,29.80,6,1,16,0.59
2013-9-22,69.8,55.0,46.3,55.4,50.2,45.0,96,85,58,30.01,29.90,3,0,7,0.01
2013-9-23,65.6,56.3,53.6,55.0,50.8,49.8,87,82,67,30.04,29.99,2,0,6,0.00
2013-9-24,79.3,64.3,53.0,54.4,50.7,46.9,90,64,32,29.98,29.87,8,3,19,0.00
2013-9-25,73.0,60.6,48.3,47.7,45.1,38.4,87,59,29,29.94,29.81,7,2,18,0.00
2013-9-26,77.2,60.3,42.4,43.3,38.8,33.0,83,49,22,30.00,29.85,4,1,13,0.00
2013-9-27,81.3,67.2,49.6,38.6,34.2,29.0,61,31,16,30.10,30.00,8,2,17,0.00
2013-9-28,83.9,61.8,43.9,52.9,42.6,36.0,88,55,20,30.10,30.00,5,1,16,0.00
2013-9-29,74.3,62.2,53.8,61.5,56.9,50.1,93,83,62,30.11,30.06,4,0,13,0.07
2013-9-30,74.9,64.5,53.6,64.1,60.3,48.8,96,87,66,30.07,29.97,5,1,11,0.16